[[{"header":{"parameterUnit":"m.s-1","parameterCategory":1,"la1":30.2992,"la2":30.254,"lo1":-89.0895,"lo2":-89.0443,"dy":0.0025,"dx":0.0025,"nx":19,"ny":19,"refTime":"2026-04-03T21:00:00:Z","depth":0,"parameterNumber":2,"parameterNumberName":"U-component_of_WINDS"},"data":[0,0,0,-4.4545,-4.4548,-4.4691,-4.4692,-4.4876,-4.4878,0,0,0,0,0,0,0,0,0,0,0,-4.4505,-4.4506,-4.4545,-4.4549,-4.4691,-4.4692,-4.4876,-4.4878,0,0,0,0,0,0,0,0,0,0,0,-4.4504,-4.4506,-4.4508,-4.4549,-4.4691,-4.4692,-4.4875,-4.4767,0,0,0,0,0,0,0,0,0,0,-4.4628,-4.4593,-4.4506,-4.4508,-4.455,-4.4691,-4.4692,-4.4762,-4.4774,-4.4813,0,-4.4848,0,-4.4866,-4.489,-4.4891,0,0,0,-4.4547,-4.4583,-4.462,-4.4508,-4.4551,-4.4691,-4.4626,-4.4768,-4.4782,-4.4829,-4.4851,-4.4857,-4.4869,-4.4891,-4.4892,-4.5123,-4.5124,0,0,-4.4539,-4.4531,-4.461,-4.4628,-4.4607,-4.4622,-4.4631,-4.4776,-4.48,-4.4851,-4.4862,-4.4872,-4.4893,-4.4894,-4.5122,-4.5123,0,0,0,-4.4518,-4.4526,-4.4559,-4.4621,-4.4646,-4.4626,-4.4636,-4.4793,-4.4805,-4.4864,-4.4874,-4.4894,-4.4896,-4.5121,-4.5122,-4.517,0,0,0,-4.4513,-4.4513,-4.4556,-4.4552,-4.4644,-4.4722,-4.465,-4.4795,-4.4811,-4.4873,-4.4894,-4.4898,-4.5119,-4.5121,-4.5166,-4.5193,0,0,0,-4.4495,-4.4511,-4.4532,-4.4552,-4.4613,-4.472,-4.474,-4.4799,-4.4818,-4.4891,-4.4898,-4.5118,-4.5121,-4.5162,-4.5187,-4.525,0,0,0,-4.4473,-4.4573,-4.4533,-4.4649,-4.4611,-4.4749,-4.4739,-4.4841,-4.491,-4.4895,-4.5119,-4.5122,-4.5161,-4.5183,-4.5246,-4.5299,-4.5322,0,0,-4.4594,-4.4587,-4.4656,-4.4624,-4.4767,-4.4728,-4.4877,-4.4947,-4.4962,-4.5068,-4.5074,-4.5167,-4.5186,-4.5249,-4.5453,-4.5471,0,0,0,-4.4691,-4.474,-4.478,-4.4845,-4.4902,-4.4952,-4.5001,-4.5027,-4.5118,-4.5015,-4.5208,-4.522,-4.5257,-4.5283,-4.5298,-4.5329,-4.5134,-4.5134,-4.5134,-4.4848,-4.4863,-4.4977,-4.5008,-4.5072,-4.5121,-4.5174,-4.5218,-4.5213,-4.5259,-4.5289,-4.5411,-4.5442,-4.5453,-4.5485,-4.5321,-4.5321,-4.5321,-4.5321,-4.5025,-4.5095,-4.5089,-4.5196,-4.5211,-4.5302,-4.5354,-4.5348,-4.5434,-4.5389,-4.5423,-4.537,-4.5472,-4.5501,-4.5325,-4.5324,-4.5324,-4.5324,-4.5323,-4.5127,-4.5163,-4.5195,-4.529,-4.5363,-4.5392,-4.5476,-4.5486,-4.5497,-4.553,-4.5563,-4.5562,-4.556,-4.5546,-4.5546,-4.5547,-4.5547,-4.5547,-4.5547,-4.5219,-4.5253,-4.5322,-4.5392,-4.5435,-4.5494,-4.5547,-4.559,-4.564,-4.5641,-4.5641,-4.5631,-4.548,-4.544,-4.5554,-4.5553,-4.5552,-4.5551,-4.5551,-4.5388,-4.5352,-4.5458,-4.5502,-4.5585,-4.5656,-4.567,-4.5757,-4.5794,-4.5835,-4.5819,-4.5707,-4.5699,-4.5688,-4.5654,-4.5817,-4.5817,-4.5817,-4.5817,-4.5472,-4.5471,-4.5582,-4.5651,-4.572,-4.5744,-4.5863,-4.5906,-4.5944,-4.5968,-4.5947,-4.5905,-4.5893,-4.5893,-4.5877,-4.5846,-4.6053,-4.6054,-4.6054,-4.5576,-4.5582,-4.5681,-4.5718,-4.5785,-4.5841,-4.5953,-4.6033,-4.6069,-4.6064,-4.5987,-4.5977,-4.5909,-4.5887,-4.5876,-4.585,-4.5794,0,0]},{"header":{"parameterUnit":"m.s-1","parameterCategory":1,"la1":30.2992,"la2":30.254,"lo1":-89.0895,"lo2":-89.0443,"dy":0.0025,"dx":0.0025,"nx":19,"ny":19,"refTime":"2026-04-03T21:00:00:Z","depth":0,"parameterNumber":3,"parameterNumberName":"V-component_of_WINDS"},"data":[0,0,0,3.9532,3.9535,3.9678,3.9679,3.9859,3.9861,0,0,0,0,0,0,0,0,0,0,0,3.9489,3.949,3.9532,3.9536,3.9678,3.9679,3.9859,3.9861,0,0,0,0,0,0,0,0,0,0,0,3.9489,3.949,3.9492,3.9536,3.9678,3.9679,3.9858,3.9751,0,0,0,0,0,0,0,0,0,0,3.9613,3.9573,3.949,3.9492,3.9537,3.9678,3.9679,3.9746,3.9758,3.9794,0,3.9826,0,3.9846,3.9873,3.9873,0,0,0,3.9536,3.9563,3.9602,3.9492,3.9538,3.9678,3.9614,3.9753,3.9766,3.9809,3.9829,3.9835,3.9849,3.9874,3.9875,4.0086,4.0087,0,0,3.9528,3.9514,3.9593,3.9611,3.959,3.9609,3.9618,3.9761,3.978,3.9829,3.984,3.9852,3.9875,3.9876,4.0085,4.0086,0,0,0,3.9505,3.9508,3.9545,3.9603,3.9629,3.9613,3.9624,3.9774,3.9787,3.9842,3.9855,3.9876,3.9878,4.0084,4.0085,4.0123,0,0,0,3.95,3.9495,3.9541,3.9534,3.9627,3.9704,3.9634,3.9777,3.9794,3.9854,3.9876,3.988,4.0083,4.0084,4.0119,4.0142,0,0,0,3.948,3.9493,3.9514,3.9533,3.9594,3.9702,3.9723,3.9781,3.9802,3.9873,3.988,4.0082,4.0084,4.0116,4.0137,4.0195,0,0,0,3.9454,3.9542,3.9514,3.9618,3.9593,3.9724,3.9722,3.982,3.9886,3.9877,4.0083,4.0085,4.0115,4.0134,4.0192,4.0242,4.0262,0,0,3.9558,3.9554,3.9617,3.9596,3.9729,3.9703,3.9842,3.9914,3.9931,4.0033,4.0038,4.012,4.0137,4.0195,4.0375,4.0391,0,0,0,3.9645,3.969,3.9728,3.9792,3.9851,3.9903,3.9956,3.9983,4.0071,3.9981,4.0157,4.0167,4.0202,4.0226,4.024,4.0271,4.0096,4.0095,4.0095,3.9771,3.9793,3.9898,3.9937,3.9999,4.0054,4.0106,4.0152,4.0152,4.0194,4.0224,4.0332,4.036,4.037,4.0402,4.0252,4.0252,4.0252,4.0252,3.9926,3.9994,3.9996,4.01,4.0122,4.0208,4.0266,4.0264,4.0347,4.031,4.0341,4.0298,4.0386,4.0416,4.0255,4.0255,4.0255,4.0254,4.0254,4.0012,4.0048,4.0082,4.0178,4.025,4.0286,4.0368,4.0384,4.0399,4.0431,4.0466,4.0465,4.0467,4.0446,4.0447,4.0447,4.0447,4.0448,4.0448,4.0087,4.0124,4.0192,4.0265,4.031,4.037,4.0429,4.0473,4.0526,4.0531,4.0532,4.053,4.0391,4.0356,4.0454,4.0453,4.0452,4.0451,4.0451,4.0237,4.0207,4.0311,4.0357,4.0445,4.0517,4.0538,4.0627,4.0666,4.0706,4.0698,4.0593,4.0589,4.0579,4.055,4.0692,4.0692,4.0692,4.0692,4.031,4.0311,4.0424,4.0495,4.0567,4.0598,4.0716,4.0764,4.0807,4.0833,4.0815,4.0778,4.0767,4.0771,4.0756,4.073,4.0914,4.0914,4.0915,4.0405,4.0414,4.0512,4.0556,4.0628,4.0688,4.0801,4.0883,4.0926,4.0924,4.0854,4.0844,4.0786,4.0765,4.0761,4.0738,4.069,0,0]}]]